Hourly Data Report for October 03, 2017

All times are specified in Local Standard Time (LST). Add 1 hour to adjust for Daylight Saving Time where and when it is observed.

REVELSTOKE A
BRITISH COLUMBIA

50°58'00.000" N
118°11'00.000" W
444.70 m
1176745
71685
YRV

Download Data

Hourly Data (October 2017)
Hourly Data Report for October 3, 2017
Temp Definition
°C
Dew Point Temp Definition
°C
Rel Hum Definition
%
Wind Dir Definition
10's deg

Wind Spd Definition
km/h
Visibility Definition
km
Stn Press Definition
kPa
Hmdx Definition


Wind Chill Definition


Weather Definition


TIME
00:00 Legend Double Dagger 6.0 0.1 66 34 9 16.1 97.40     LegendNANA
01:00 Legend Double Dagger 6.3 -0.2 63 34 13 16.1 97.44     LegendNANA
02:00 Legend Double Dagger 5.7 0.1 67 33 17 16.1 97.47     LegendNANA
03:00 Legend Double Dagger 3.7 -0.2 76 LegendMM 4 16.1 97.52     LegendNANA
04:00 Legend Double Dagger 2.1 0.2 87   0 16.1 97.55     LegendNANA
05:00 Legend Double Dagger 1.1 -0.2 91   0 16.1 97.60     LegendNANA
06:00 Legend Double Dagger 1.1 -0.2 91 LegendMM 4 16.1 97.66     LegendNANA
07:00 Legend Double Dagger 0.9 -0.1 93   0 16.1 97.69     LegendNANA
08:00 Legend Double Dagger 2.9 0.8 86 LegendMM 4 16.1 97.70     LegendNANA
09:00 Legend Double Dagger 6.2 0.8 68 LegendMM 4 16.1 97.68     LegendNANA
10:00 Legend Double Dagger 8.3 -0.6 54 LegendMM 4 16.1 97.65     LegendNANA
11:00 Legend Double Dagger 10.7 -0.5 46 32 5 16.1 97.56     LegendNANA
12:00 Legend Double Dagger 12.2 -1.6 38   0 16.1 97.49     LegendNANA
13:00 Legend Double Dagger 13.8 -0.5 37 LegendMM 4 16.1 97.39     LegendNANA
14:00 Legend Double Dagger 15.3 1.3 38 33 8 16.1 97.28     LegendNANA
15:00 Legend Double Dagger 15.5 1.1 37 33 8 16.1 97.23     LegendNANA
16:00 Legend Double Dagger 11.8 1.8 50 LegendMM 4 16.1 97.19     LegendNANA
17:00 Legend Double Dagger 9.0 2.4 63 LegendMM 4 16.1 97.21     LegendNANA
18:00 Legend Double Dagger 7.9 2.4 68 30 11 16.1 97.24     LegendNANA
19:00 Legend Double Dagger 5.9 1.9 76   0 16.1 97.28     LegendNANA
20:00 Legend Double Dagger 5.6 2.4 80   0 16.1 97.31     LegendNANA
21:00 Legend Double Dagger 4.3 2.0 85   0 16.1 97.36     LegendNANA
22:00 Legend Double Dagger 3.7 1.9 88   0 16.1 97.40     LegendNANA
23:00 Legend Double Dagger 3.4 2.1 91   0 16.1 97.40     LegendNANA

Notes on Data Quality.

Legend

  • E = Estimated
  • M = Missing
  • NA = Not Available
  • ‡ = Partner data that is not subject to review by the National Climate Archives
Date modified: